Wind_Speed
81 82 80 76 71 68 66 64 62 61 60 59 59 60 60 58 55 52 51 50 48 47 46 44 42 40 38 37 36 35 33 31 28 27 27 28 28 28 28 27 25 25 23
78 75 71 66 62 59 58 58 58 56 55 54 53 51 49 45 42 40 38 37 37 36 34 33 32 32 31 30 30 28 27 26 25 24 24 23 24 25 26 25 23 22 19
70 66 59 53 52 52 53 50 47 46 45 43 40 37 35 33 32 31 31 31 30 29 28 28 29 29 29 28 27 25 23 23 23 24 24 23 22 23 23 22 21 21 20
60 52 48 47 46 44 40 38 37 36 33 32 30 30 29 29 28 27 27 27 26 26 26 26 24 23 22 21 20 21 21 21 19 21 21 19 19 18 18 19 20 21 23
47 44 43 42 38 34 31 30 29 28 27 26 26 26 26 26 25 24 24 25 24 22 20 18 16 17 17 15 14 13 14 15 15 15 16 15 14 15 16 17 20 22 24
42 40 37 34 29 27 25 23 24 24 25 24 23 24 24 23 22 22 21 20 18 14 12 12 13 14 14 12 9 8 7 8 10 11 11 12 12 13 14 18 19 21 22
37 32 27 23 21 20 19 21 23 24 24 22 21 20 20 20 18 17 15 12 10 9 9 10 11 12 11 11 7 4 5 6 9 10 11 11 12 12 14 16 17 18 21
24 18 15 14 15 17 20 22 22 20 17 17 16 16 17 17 17 16 13 11 10 9 10 10 9 10 11 11 7 2 4 7 9 10 9 11 14 16 17 18 18 17 20
10 9 9 12 15 17 19 18 18 19 19 19 18 18 18 18 17 16 13 12 11 11 11 11 11 11 10 9 5 2 2 6 9 11 12 13 16 19 21 20 18 17 20
9 10 11 13 15 17 17 19 20 22 22 22 22 21 20 19 18 16 14 13 12 12 13 13 13 13 11 8 4 1 3 4 7 10 12 14 17 23 24 23 20 20 22
11 12 13 15 17 18 21 23 25 25 25 25 25 24 23 23 21 19 17 15 14 13 13 13 11 11 8 6 4 3 4 6 7 8 10 14 19 23 24 23 20 20 21
14 14 15 18 21 24 26 28 28 28 28 27 27 26 24 24 23 22 21 19 16 14 13 12 11 8 3 5 8 7 6 6 8 10 11 14 16 18 18 17 17 17 17
17 18 20 22 25 26 28 29 30 31 31 31 30 29 27 25 24 22 21 20 19 17 15 12 10 7 3 4 8 9 10 9 10 12 13 14 15 16 16 17 16 15 13
21 22 23 25 27 28 29 30 31 32 32 31 30 29 27 25 24 22 21 19 18 17 16 14 10 7 3 2 6 9 11 11 12 14 17 18 18 17 17 16 15 14 13
24 24 25 27 28 30 31 32 33 33 32 31 28 26 24 23 22 20 18 16 15 15 15 14 12 10 7 5 6 8 8 9 10 12 17 21 21 21 19 18 16 16 15
24 26 28 29 31 32 34 35 35 35 34 31 28 25 22 21 21 20 17 14 12 11 11 12 12 13 12 10 9 8 8 8 8 10 13 18 21 21 20 18 17 17 18
27 30 31 33 34 35 37 38 37 36 34 30 26 22 20 21 22 21 18 14 11 9 8 8 10 13 15 15 13 11 10 9 10 10 13 16 19 20 20 19 19 19 20
29 32 35 37 39 41 43 43 41 37 33 29 25 22 22 24 25 24 21 17 12 8 6 5 6 11 16 18 17 15 13 12 12 13 15 17 18 20 20 20 19 18 19
29 33 36 39 42 45 47 46 43 38 34 30 27 26 25 26 27 26 24 19 12 7 4 3 3 7 14 19 20 20 18 16 15 15 16 17 18 19 19 20 20 20 21
29 33 36 40 43 46 48 48 45 41 38 35 32 30 29 29 28 27 26 22 15 8 5 4 3 3 11 18 22 24 24 22 20 19 18 18 18 18 19 20 21 22 23
30 33 37 40 42 45 47 48 47 44 41 39 37 35 34 32 31 29 28 24 19 13 10 9 8 3 7 15 22 25 27 27 25 24 22 21 20 19 20 21 22 23 25
29 33 36 38 41 43 46 48 49 47 44 41 40 40 38 35 32 30 28 25 21 16 12 10 10 8 4 9 17 23 27 29 28 28 26 24 23 22 22 22 23 25 27
28 32 35 37 39 42 45 47 49 50 48 44 42 42 42 38 33 31 29 26 23 19 15 10 8 7 6 7 11 18 24 27 28 29 28 27 26 25 24 23 24 26 28
28 31 34 36 38 40 43 46 49 50 50 48 45 44 44 41 35 32 29 26 23 22 20 16 12 8 7 8 10 14 19 23 26 27 28 28 27 26 25 25 24 26 28
29 31 33 35 37 39 42 44 46 49 50 50 49 47 45 44 40 34 31 28 24 21 20 19 17 13 11 11 13 14 17 21 24 25 26 26 26 26 26 25 25 25 27
29 31 34 36 38 40 42 43 45 47 48 50 50 50 48 46 44 39 35 32 28 23 21 19 18 16 15 15 16 17 18 20 22 23 23 22 22 23 24 24 24 25 27
Wind_Direction
297 298 299 300 300 299 299 298 297 296 295 292 290 289 290 292 291 289 288 288 289 289 288 287 286 285 284 282 281 280 278 273 263 254 252 252 252 252 251 255 259 260 262
298 299 300 300 299 298 297 297 296 294 293 293 293 293 293 294 294 293 292 292 291 290 287 286 286 285 286 283 280 276 272 268 260 251 245 246 249 251 253 257 256 252 240
299 301 302 301 300 299 298 297 296 296 297 298 299 300 301 301 300 298 295 293 292 290 289 290 290 289 288 284 276 270 265 264 256 243 240 244 248 252 253 252 245 235 220
303 304 306 306 306 305 304 303 303 304 304 305 306 307 306 304 302 299 295 291 291 294 297 298 298 295 292 286 274 265 261 260 251 238 239 240 244 246 247 239 227 218 210
305 307 310 312 312 311 311 311 312 312 312 312 311 309 308 306 303 299 294 291 293 297 299 300 303 304 301 292 277 264 258 251 238 233 231 231 232 234 230 218 213 214 212
307 309 311 313 314 315 317 319 319 319 317 315 313 311 311 312 311 308 304 299 298 299 300 303 310 316 316 310 287 265 252 241 223 211 210 213 215 216 210 204 206 211 213
308 309 312 317 320 324 326 326 325 322 320 319 318 319 322 324 328 332 331 322 318 314 311 313 318 328 342 342 329 272 233 218 202 201 214 210 204 198 193 192 196 201 205
312 317 323 328 331 332 332 332 333 338 341 342 342 341 340 340 340 340 337 333 332 326 317 311 312 326 344 348 342 297 213 205 200 199 201 203 196 189 184 180 184 195 199
344 353 353 347 342 341 343 351 359 1 0 358 354 349 347 348 348 344 336 329 327 324 318 306 300 309 327 341 358 7 206 200 192 192 194 191 189 187 183 180 182 183 183
36 24 7 356 352 352 356 356 354 353 351 348 345 342 340 338 339 340 338 333 334 333 327 314 300 295 298 304 312 53 97 151 171 181 188 189 187 182 179 177 178 176 178
36 21 13 7 2 356 350 346 343 342 340 338 336 333 330 328 326 324 322 320 322 331 339 336 325 309 288 261 227 176 125 125 141 153 161 171 177 177 176 175 174 175 181
38 31 21 9 359 352 347 345 344 343 342 340 338 336 333 328 322 316 310 305 302 307 321 333 343 343 301 218 205 197 179 163 154 150 150 154 162 167 171 176 179 182 188
47 32 17 4 356 352 350 348 346 344 343 342 340 338 336 332 327 321 315 307 298 293 294 304 322 339 355 187 190 192 193 190 183 178 172 167 164 163 165 169 171 177 188
39 24 11 2 356 352 351 351 349 348 347 345 344 343 342 341 339 335 326 315 305 294 285 279 282 294 287 179 172 174 178 186 193 196 192 187 181 178 178 180 188 199 206
29 18 9 3 1 0 360 358 355 353 351 349 348 348 349 350 349 347 341 330 313 297 283 270 258 251 244 218 190 180 182 190 194 192 191 190 191 193 197 204 210 212 202
26 20 17 14 10 7 4 1 357 354 352 352 351 352 354 357 356 352 349 347 339 318 293 272 253 236 229 220 206 194 187 181 179 177 177 183 189 195 200 203 198 189 177
33 30 26 22 17 14 9 4 360 357 358 1 0 360 0 359 354 349 345 340 339 335 314 285 252 232 222 216 209 200 190 178 166 161 163 166 172 176 177 177 174 170 163
38 35 31 26 22 18 14 10 7 6 8 10 9 7 2 357 353 351 347 341 335 332 328 311 261 226 216 211 206 202 196 185 171 158 153 155 157 160 162 163 165 165 165
39 36 32 27 24 20 18 17 17 18 18 17 16 13 7 3 1 360 359 354 346 338 337 334 295 226 209 203 198 195 194 188 179 166 156 151 152 154 158 162 165 166 167
40 36 33 29 26 23 22 23 24 24 24 23 21 17 14 12 11 12 12 13 15 19 30 31 7 233 201 196 192 189 188 187 183 176 167 160 156 155 155 157 160 162 165
39 36 33 30 27 25 25 26 26 26 25 25 23 20 19 18 18 19 20 23 28 37 46 46 41 57 186 189 189 186 185 185 184 181 176 171 166 163 160 159 160 162 164
39 36 33 30 28 26 26 27 27 27 25 24 24 23 21 19 19 22 26 30 34 39 46 48 47 53 100 172 182 185 184 184 184 183 180 176 174 171 167 164 165 167 167
40 36 33 30 28 28 27 27 28 29 29 27 27 26 24 24 25 28 31 34 37 39 40 41 48 62 84 127 163 176 181 182 183 184 182 179 177 176 172 169 169 171 171
40 37 34 31 29 28 28 28 28 29 30 30 29 28 28 28 30 32 33 34 36 38 41 43 47 64 98 120 141 160 170 176 180 184 184 181 180 178 176 174 173 174 175
42 38 35 32 30 29 29 28 28 28 29 30 30 30 30 30 31 32 33 33 34 37 40 42 47 61 87 115 131 144 158 166 173 179 183 183 182 181 179 177 177 177 178
44 39 36 33 31 30 29 29 28 28 29 30 31 31 31 32 33 33 34 35 37 38 40 43 50 66 85 105 121 133 146 158 166 173 178 180 180 180 180 179 180 180 181
Height
5694 5686 5677 5668 5660 5653 5646 5639 5633 5627 5621 5615 5609 5603 5597 5591 5585 5580 5576 5572 5568 5564 5561 5558 5555 5552 5550 5548 5547 5546 5546 5547 5550 5555 5557 5560 5563 5566 5570 5572 5574 5576 5577
5678 5670 5661 5654 5646 5639 5632 5626 5619 5612 5606 5599 5593 5587 5582 5576 5571 5567 5564 5561 5558 5555 5551 5548 5546 5544 5541 5539 5538 5537 5538 5539 5542 5546 5549 5552 5555 5558 5562 5564 5566 5568 5571
5662 5654 5647 5640 5633 5626 5620 5612 5605 5599 5593 5587 5581 5576 5571 5566 5562 5559 5556 5553 5550 5547 5544 5542 5539 5536 5533 5531 5530 5530 5531 5532 5534 5538 5541 5544 5548 5551 5554 5557 5559 5563 5567
5648 5641 5634 5628 5621 5614 5607 5601 5595 5589 5584 5578 5573 5568 5564 5559 5555 5552 5549 5546 5543 5541 5538 5535 5531 5528 5525 5523 5523 5523 5524 5525 5527 5530 5534 5538 5541 5545 5548 5551 5554 5559 5564
5635 5629 5623 5617 5611 5604 5599 5593 5588 5582 5577 5572 5567 5563 5558 5554 5550 5546 5542 5539 5537 5534 5532 5529 5526 5523 5521 5518 5518 5518 5518 5520 5522 5526 5529 5533 5537 5541 5544 5547 5551 5556 5561
5625 5620 5614 5609 5604 5598 5593 5588 5583 5578 5572 5568 5563 5558 5554 5549 5544 5540 5536 5533 5532 5530 5528 5526 5524 5521 5518 5515 5514 5514 5515 5517 5519 5523 5526 5530 5534 5538 5541 5545 5549 5554 5560
5615 5611 5607 5603 5599 5595 5590 5585 5579 5574 5569 5563 5559 5554 5549 5544 5540 5536 5532 5530 5529 5528 5526 5524 5522 5519 5517 5514 5513 5513 5514 5516 5518 5521 5524 5528 5532 5536 5540 5544 5549 5553 5558
5607 5605 5603 5600 5596 5592 5587 5582 5576 5571 5565 5560 5556 5551 5546 5542 5538 5535 5532 5530 5528 5527 5525 5522 5520 5519 5516 5515 5513 5513 5513 5515 5517 5520 5523 5527 5531 5535 5539 5544 5548 5553 5558
5604 5603 5601 5598 5595 5591 5586 5581 5576 5570 5565 5560 5555 5550 5546 5541 5537 5534 5531 5529 5527 5525 5523 5521 5519 5518 5516 5515 5514 5513 5514 5515 5516 5519 5522 5526 5530 5534 5539 5544 5549 5554 5560
5605 5604 5601 5598 5595 5591 5586 5581 5576 5570 5565 5560 5555 5550 5545 5541 5536 5533 5530 5527 5525 5523 5521 5519 5517 5515 5515 5515 5515 5515 5515 5515 5517 5519 5522 5525 5529 5533 5538 5543 5549 5556 5562
5607 5605 5603 5600 5596 5591 5586 5581 5575 5569 5564 5558 5553 5547 5542 5538 5534 5530 5527 5525 5523 5521 5519 5517 5514 5513 5512 5514 5515 5516 5517 5518 5519 5521 5524 5527 5530 5534 5539 5544 5550 5557 5563
5610 5608 5605 5601 5597 5591 5585 5579 5573 5566 5560 5554 5549 5543 5538 5533 5529 5526 5523 5521 5519 5518 5517 5516 5514 5512 5511 5512 5515 5516 5518 5520 5522 5524 5527 5530 5533 5538 5542 5547 5552 5557 5562
5613 5611 5607 5603 5597 5591 5584 5577 5570 5563 5556 5550 5544 5538 5533 5528 5524 5520 5517 5515 5514 5513 5513 5513 5513 5512 5512 5512 5514 5516 5518 5520 5523 5525 5529 5532 5535 5540 5544 5548 5553 5557 5561
5617 5614 5609 5604 5597 5591 5584 5576 5568 5560 5553 5546 5539 5533 5528 5523 5519 5515 5512 5510 5508 5507 5508 5509 5510 5511 5512 5512 5514 5516 5518 5520 5522 5524 5528 5532 5536 5540 5544 5549 5553 5557 5560
5621 5617 5612 5605 5598 5590 5582 5574 5566 5558 5550 5543 5536 5530 5525 5521 5516 5512 5508 5505 5502 5501 5502 5503 5505 5508 5510 5512 5513 5515 5517 5519 5520 5522 5525 5530 5534 5539 5543 5547 5551 5555 5558
5625 5620 5613 5606 5599 5591 5583 5574 5565 5556 5548 5540 5533 5528 5523 5519 5514 5510 5506 5503 5500 5498 5497 5497 5499 5502 5505 5509 5512 5514 5516 5518 5520 5522 5524 5528 5532 5536 5541 5545 5548 5552 5556
5627 5621 5615 5608 5601 5593 5584 5575 5565 5555 5547 5539 5532 5527 5522 5518 5513 5508 5504 5501 5498 5496 5494 5493 5494 5496 5500 5504 5508 5512 5514 5517 5520 5522 5525 5528 5531 5535 5539 5543 5547 5551 5555
5630 5624 5618 5611 5603 5594 5585 5574 5564 5554 5546 5539 5533 5527 5522 5517 5511 5505 5500 5496 5494 5492 5491 5490 5489 5491 5494 5499 5504 5508 5512 5516 5519 5523 5526 5529 5532 5535 5539 5543 5547 5551 5556
5633 5627 5621 5613 5605 5597 5587 5576 5566 5556 5548 5541 5535 5529 5524 5517 5510 5504 5497 5492 5489 5488 5488 5487 5487 5487 5490 5494 5499 5505 5509 5514 5518 5522 5526 5530 5533 5536 5540 5544 5548 5553 5557
5637 5631 5625 5617 5609 5601 5591 5581 5570 5561 5553 5545 5539 5532 5525 5518 5511 5504 5497 5491 5487 5486 5486 5486 5485 5485 5486 5490 5495 5500 5506 5511 5516 5521 5526 5530 5534 5538 5541 5545 5549 5554 5559
5641 5635 5628 5621 5613 5605 5596 5586 5576 5567 5558 5550 5543 5535 5527 5520 5513 5506 5499 5493 5489 5487 5486 5485 5484 5484 5484 5487 5492 5497 5503 5508 5514 5519 5525 5530 5535 5539 5543 5546 5550 5555 5560
5644 5638 5632 5626 5618 5611 5602 5592 5582 5573 5564 5555 5547 5539 5531 5523 5515 5509 5502 5497 5493 5490 5488 5487 5486 5485 5485 5486 5490 5495 5501 5507 5512 5518 5523 5529 5535 5540 5544 5548 5552 5556 5561
5648 5642 5636 5630 5623 5616 5607 5598 5589 5580 5570 5560 5552 5544 5535 5527 5519 5512 5507 5501 5497 5493 5491 5489 5488 5487 5487 5488 5490 5494 5500 5506 5511 5517 5522 5528 5534 5539 5544 5548 5552 5557 5562
5651 5646 5640 5634 5628 5621 5613 5604 5596 5586 5577 5567 5558 5549 5541 5532 5524 5517 5511 5506 5502 5498 5494 5492 5490 5489 5489 5490 5492 5495 5500 5505 5511 5516 5522 5527 5533 5538 5543 5548 5553 5558 5562
5656 5651 5645 5639 5633 5626 5618 5610 5602 5593 5584 5575 5565 5556 5547 5539 5530 5523 5517 5511 5506 5502 5499 5496 5493 5492 5492 5493 5495 5498 5502 5507 5512 5517 5522 5527 5533 5538 5543 5548 5553 5558 5563
5660 5656 5651 5645 5638 5631 5624 5616 5608 5600 5592 5582 5573 5563 5554 5546 5538 5530 5523 5517 5512 5507 5503 5500 5498 5496 5496 5497 5499 5502 5506 5510 5515 5520 5525 5529 5534 5539 5543 5548 5553 5558 5563